This is the latest recevied weather packets stored in our database for station/object KD7CIH. If no packets are shown the sender has not sent any weather packets the latest 10 day(s).
| Time | Temp. | Humidity | Pressure | Rain* | Wind** | Luminosity | Snow |
|---|---|---|---|---|---|---|---|
| 1777317247 | 6.11° C | 53% | 1006.4 hPa | 0 mm | - | - | - |
| 1777316948 | 6.11° C | 54% | 1006.5 hPa | 0 mm | - | - | - |
| 1777316649 | 6.11° C | 55% | 1006.5 hPa | 0 mm | - | - | - |
| 1777316347 | 6.11° C | 52% | 1006.5 hPa | 0 mm | - | - | - |
| 1777316047 | 6.11° C | 54% | 1006.6 hPa | 0 mm | - | - | - |
| 1777315746 | 5.56° C | 53% | 1006.6 hPa | 0 mm | - | - | - |
| 1777315576 | 5.56° C | 56% | 1006.7 hPa | 0 mm | - | - | - |
| 1777315147 | 5° C | 57% | 1006.7 hPa | 0 mm | - | - | - |
| 1777314847 | 4.44° C | 59% | 1006.7 hPa | 0 mm | - | - | - |
| 1777314546 | 4.44° C | 58% | 1007 hPa | 0 mm | - | - | - |
| 1777314376 | 5° C | 62% | 1006.9 hPa | 0 mm | - | - | - |
| 1777314073 | 5° C | 64% | 1006.9 hPa | 0 mm | - | - | - |
| 1777313648 | 5° C | 68% | 1006.9 hPa | 0 mm | - | - | - |
| 1777313348 | 5° C | 68% | 1007.1 hPa | 0 mm | - | - | - |
| 1777313047 | 4.44° C | 68% | 1007.1 hPa | 0 mm | - | - | - |
| 1777312748 | 4.44° C | 69% | 1007 hPa | 0 mm | - | - | - |
| 1777312446 | 4.44° C | 69% | 1007.2 hPa | 0 mm | - | - | - |
| 1777312275 | 4.44° C | 69% | 1007.2 hPa | 0 mm | - | - | - |
| 1777311848 | 4.44° C | 70% | 1007.2 hPa | 0 mm | - | - | - |
| 1777311675 | 3.89° C | 70% | 1007.3 hPa | 0 mm | - | - | - |
| 1777311248 | 3.89° C | 71% | 1007.2 hPa | 0 mm | - | - | - |
| 1777310947 | 3.33° C | 73% | 1007.2 hPa | 0 mm | - | - | - |
| 1777310647 | 3.33° C | 73% | 1007.3 hPa | 0 mm | - | - | - |
| 1777310347 | 3.33° C | 73% | 1007.2 hPa | 0 mm | - | - | - |
| 1777310048 | 3.33° C | 74% | 1007.2 hPa | 0 mm | - | - | - |
* Rain latest hour (hover to see other rain measurements)
** Current wind speed in m/s (hover to see current wind gust speed)